User: anonymous   Login
Location: Roanoke
(37.2710°N, 79.9420°W)
Time: 01:05:45
(UTC-04:00)
Language:

Cosmos 1441 Rocket - Orbit

View from above orbital plane
View from above orbital plane
View from above satellite
View from above satellite

Ground track
Ground track

The orbit data is extracted from the following two-line orbital elements,

1 13819U 83010B   14298.75536339  .00007294  00000-0  42466-3 0  9840
2 13819 081.1201 204.5191 0034116 314.2799 045.5628 15.11401084727662
Epoch (UTC): 25 October 2014 18:07:43
Eccentricity: 0.0034116
inclination: 81.1201°
perigee height: 508 km
apogee height: 555 km
right ascension of ascending node: 204.5191°
argument of perigee: 314.2799°
revolutions per day: 15.11401084
mean anomaly at epoch: 45.5628°
orbit number at epoch: 72766

The dashed part of the orbit path shows where the satellite is in the earth's shadow,  

DLR